Powrót do katalogu

DUBAISAT 1

AktywnyNaukaSSO
NORAD 35682·PAYLOAD·🇦🇪 UAE

Wystrzelony Jul 29, 2009 z Baikonur Cosmodrome

Loading…

Następne Przeloty (najbliższe 24 godziny)

TLE

ŚwieżeSource: Space-Track

Epoka: Sep 13, 2026, 22:40 UTC

1 35682U 09041B   26256.94498807  .00000672  00000-0  10682-3 0  9993
2 35682  98.0176  29.2981 0011202 140.6087 219.5939 14.75249544918180

Śledź DUBAISAT 1 w czasie rzeczywistym z AllMySat

Download on the App Store